Weather History for West Palm Beach, FL

Change the Weather History Date:

Friday, January 13, 2012

  Actual Average Record
Temperature  
Mean Temperature 67 °F 65 °F  
Max Temperature 73 °F 74 °F 84 °F (1946)
Min Temperature 61 °F 57 °F 31 °F (1922)
Degree Days  
Heating Degree Days 0 3  
Month to date heating degree days 53 39  
Since 1 July heating degree days 64 110  
Cooling Degree Days 2 3  
Month to date cooling degree days 19 46  
Year to date cooling degree days 19 46  
Growing Degree Days 17 (Base 50)    
Moisture  
Dew Point 57 °F    
Average Humidity 76    
Maximum Humidity 93    
Minimum Humidity 58    
Precipitation  
Precipitation 0.00 in 0.11 in 2.57 in (1948)
Month to date precipitation T 1.42  
Year to date precipitation T 1.42  
Snow  
Snow 0.00 in - - ()
Month to date snowfall 0.0  
Since 1 July snowfall 0.0  
Snow Depth 0.00 in    
Sea Level Pressure  
Sea Level Pressure 30.10 in    
Wind  
Wind Speed 6 mph (NW)    
Max Wind Speed 14 mph    
Max Gust Speed 18 mph    
Visibility 10 miles    
Events      
T = Trace of Precipitation, MM = Missing Value Source: NWS Daily Summary

Daily Weather History Graph

Daily Weather History Graph

Search for Another Location

Airport:

Trip Planner

Search our weather history database for the weather conditions in past years. The results will help you decide how hot, cold, wet, or windy it might be!

Date:

Astronomy

Jan. 13, 2012 Rise Set
Actual Time 7:10 AM EST 5:47 PM EST
Civil Twilight 6:45 AM EST 6:12 PM EST
Nautical Twilight 6:16 AM EST 6:41 PM EST
Astronomical Twilight 5:48 AM EST 7:09 PM EST
Moon 10:24 PM EST (1/13) 9:54 AM EST (1/13)
Length of Visible Light 11h 27m
Length of Day
10h 37m
Waning Gibbous, 79% of the Moon is Illuminated
Jan 13
Waning Gibbous
Jan 16
Last Quarter
Jan 23
New
Jan 30
First Quarter
Feb 7
Full

Hourly Weather History & Observations

Time (EST) Temp. Dew Point Humidity Pressure Visibility Wind Dir Wind Speed Gust Speed Precip Events Conditions
12:53 AM 66.9 °F 59.0 °F 76% 30.00 in 10.0 mi West 5.8 mph - N/A   Overcast
1:53 AM 66.0 °F 59.0 °F 78% 30.01 in 10.0 mi West 4.6 mph - N/A   Overcast
2:53 AM 64.0 °F 59.0 °F 84% 30.01 in 10.0 mi West 6.9 mph - N/A   Mostly Cloudy
3:53 AM 64.0 °F 60.1 °F 87% 30.02 in 10.0 mi SW 5.8 mph - N/A   Mostly Cloudy
4:53 AM 64.9 °F 60.1 °F 84% 30.02 in 10.0 mi WSW 4.6 mph - N/A   Overcast
5:53 AM 64.9 °F 61.0 °F 87% 30.04 in 10.0 mi WSW 5.8 mph - N/A   Overcast
6:53 AM 64.9 °F 62.1 °F 90% 30.06 in 10.0 mi SW 8.1 mph - N/A   Overcast
7:53 AM 66.0 °F 62.1 °F 87% 30.08 in 10.0 mi West 6.9 mph - N/A   Mostly Cloudy
8:53 AM 64.9 °F 61.0 °F 87% 30.11 in 10.0 mi NW 10.4 mph - N/A   Mostly Cloudy
9:09 AM 66.2 °F 60.8 °F 83% 30.12 in 10.0 mi NW 9.2 mph - N/A   Mostly Cloudy
9:53 AM 66.0 °F 59.0 °F 78% 30.14 in 10.0 mi NW 9.2 mph - N/A   Mostly Cloudy
10:16 AM 66.2 °F 57.2 °F 73% 30.14 in 10.0 mi NNW 8.1 mph - N/A   Mostly Cloudy
10:53 AM 66.0 °F 57.9 °F 75% 30.13 in 10.0 mi NW 8.1 mph - N/A   Mostly Cloudy
11:53 AM 68.0 °F 57.0 °F 68% 30.11 in 10.0 mi North 4.6 mph - N/A   Mostly Cloudy
12:53 PM 71.1 °F 57.0 °F 61% 30.10 in 10.0 mi North 6.9 mph - N/A   Mostly Cloudy
1:53 PM 72.0 °F 57.0 °F 59% 30.08 in 10.0 mi Calm Calm - N/A   Mostly Cloudy
2:53 PM 72.0 °F 59.0 °F 64% 30.09 in 10.0 mi NE 3.5 mph - N/A   Mostly Cloudy
3:53 PM 70.0 °F 59.0 °F 68% 30.09 in 10.0 mi Variable 6.9 mph - N/A   Mostly Cloudy
4:53 PM 69.1 °F 55.9 °F 63% 30.10 in 10.0 mi NE 8.1 mph - N/A   Mostly Cloudy
5:53 PM 68.0 °F 54.0 °F 61% 30.12 in 10.0 mi North 4.6 mph - N/A   Mostly Cloudy
6:53 PM 66.9 °F 52.0 °F 59% 30.14 in 10.0 mi Calm Calm - N/A   Mostly Cloudy
7:53 PM 64.9 °F 51.1 °F 61% 30.14 in 10.0 mi North 4.6 mph - N/A   Mostly Cloudy
8:53 PM 62.1 °F 53.1 °F 72% 30.15 in 10.0 mi NW 4.6 mph - N/A   Scattered Clouds
9:53 PM 64.0 °F 52.0 °F 65% 30.16 in 10.0 mi NNW 4.6 mph - N/A   Mostly Cloudy
10:53 PM 62.1 °F 51.1 °F 67% 30.16 in 10.0 mi NNW 6.9 mph - N/A   Scattered Clouds
11:53 PM 61.0 °F 46.0 °F 58% 30.17 in 10.0 mi NW 11.5 mph - N/A   Mostly Cloudy